Weather History for KARB - October, 2014

Change the Weather History Date:

Tuesday, October 21, 2014

  Actual Average Record
Temperature  
Mean Temperature 46 °F -  
Max Temperature 48 °F 56 °F 78 °F (2007)
Min Temperature 44 °F 35 °F 21 °F (1999)
Degree Days  
Heating Degree Days 19    
Moisture  
Dew Point 40 °F    
Average Humidity 76    
Maximum Humidity 87    
Minimum Humidity 68    
Precipitation  
Precipitation 0.00 in - - ()
Sea Level Pressure  
Sea Level Pressure 30.02 in    
Wind  
Wind Speed 10 mph (North)    
Max Wind Speed 17 mph    
Max Gust Speed 25 mph    
Visibility 10 miles    
Events Rain    
Averages and records for this station are not official NWS values.
T = Trace of Precipitation, MM = Missing Value Source: NWS Daily Summary

Daily Weather History Graph

Daily Weather History Graph

Search for Another Location

Airport or City:

Trip Planner

Search our weather history database for the weather conditions in past years. The results will help you decide how hot, cold, wet, or windy it might be!

Date:

Astronomy

Oct. 21, 2014 Rise Set
Actual Time 7:54 AM EDT 6:43 PM EDT
Civil Twilight 7:26 AM EDT 7:12 PM EDT
Nautical Twilight 6:53 AM EDT 7:44 PM EDT
Astronomical Twilight 6:21 AM EDT 8:17 PM EDT
Moon 5:35 AM EDT (10/21) 5:39 PM EDT (10/21)
Length of Visible Light 11h 46m
Length of Day
10h 49m
Waning Crescent, 5% of the Moon is Illuminated
Oct 21
Waning Crescent
Oct 23
New
Oct 30
First Quarter
Nov 6
Full
Nov 14
Last Quarter

Hourly Weather History & Observations

Time (EDT) Temp. Windchill Dew Point Humidity Pressure Visibility Wind Dir Wind Speed Gust Speed Precip Events Conditions
12:15 AM 48.9 °F - 43.0 °F 80% 29.87 in 10.0 mi North 9.2 mph - 0.00 in Rain Light Rain
12:53 AM 48.9 °F - 43.0 °F 80% 29.89 in 10.0 mi NNW 8.1 mph - 0.00 in   Overcast
1:42 AM 48.9 °F - 42.1 °F 77% 29.88 in 10.0 mi NNW 6.9 mph - N/A   Overcast
1:53 AM 48.9 °F - 42.1 °F 77% 29.89 in 10.0 mi North 6.9 mph - N/A   Overcast
2:53 AM 48.9 °F - 42.1 °F 77% 29.90 in 10.0 mi NNW 9.2 mph - N/A   Overcast
3:08 AM 48.9 °F - 42.1 °F 77% 29.89 in 10.0 mi NNW 9.2 mph - N/A   Overcast
3:53 AM 48.9 °F - 42.1 °F 77% 29.90 in 10.0 mi NNW 10.4 mph - N/A   Overcast
4:46 AM 48.9 °F - 41.0 °F 74% 29.90 in 10.0 mi NNW 9.2 mph - N/A   Overcast
4:53 AM 48.9 °F - 41.0 °F 74% 29.91 in 10.0 mi NNW 8.1 mph - N/A   Overcast
5:53 AM 48.0 °F - 42.1 °F 80% 29.93 in 10.0 mi NNW 9.2 mph - N/A   Overcast
6:03 AM 48.0 °F - 42.1 °F 80% 29.92 in 10.0 mi NNW 8.1 mph - N/A   Overcast
6:50 AM 48.2 °F - 42.8 °F 82% 29.94 in 10.0 mi NNW 9.2 mph - N/A   Overcast
6:53 AM 48.0 °F - 42.1 °F 80% 29.95 in 10.0 mi NNW 9.2 mph - N/A   Overcast
7:15 AM 48.0 °F - 42.1 °F 80% 29.95 in 10.0 mi NNW 8.1 mph - N/A   Overcast
7:23 AM 48.0 °F - 42.1 °F 80% 29.95 in 10.0 mi NNW 10.4 mph - N/A   Overcast
7:53 AM 46.9 °F - 43.0 °F 86% 29.97 in 10.0 mi NNW 6.9 mph - N/A   Overcast
8:50 AM 46.4 °F 42.9 °F 42.8 °F 87% 29.98 in 10.0 mi NNW 6.9 mph - N/A   Overcast
8:53 AM 46.9 °F - 43.0 °F 86% 29.99 in 10.0 mi NNW 8.1 mph - N/A   Overcast
9:04 AM 48.0 °F - 43.0 °F 83% 29.99 in 10.0 mi NNW 11.5 mph - N/A   Overcast
9:23 AM 48.0 °F - 43.0 °F 83% 29.99 in 10.0 mi North 13.8 mph 19.6 mph N/A   Overcast
9:53 AM 48.0 °F - 42.1 °F 80% 30.01 in 10.0 mi North 13.8 mph 20.7 mph N/A   Overcast
10:16 AM 46.9 °F - 42.1 °F 83% 30.02 in 5.0 mi North 16.1 mph 24.2 mph 0.00 in Rain Light Rain
10:27 AM 48.0 °F - 42.1 °F 80% 30.02 in 10.0 mi North 12.7 mph 19.6 mph 0.00 in Rain Light Rain
10:45 AM 48.0 °F - 42.1 °F 80% 30.03 in 10.0 mi North 9.2 mph 20.7 mph 0.00 in Rain Light Rain
10:53 AM 48.0 °F - 41.0 °F 77% 30.04 in 10.0 mi North 15.0 mph 18.4 mph 0.00 in   Overcast
11:13 AM 46.9 °F - 41.0 °F 80% 30.03 in 10.0 mi North 12.7 mph 18.4 mph N/A   Overcast
11:53 AM 46.9 °F - 39.9 °F 77% 30.05 in 10.0 mi North 17.3 mph 23.0 mph 0.00 in   Overcast
12:53 PM 46.9 °F - 37.9 °F 71% 30.07 in 10.0 mi North 11.5 mph 19.6 mph N/A   Overcast
1:53 PM 46.9 °F - 37.0 °F 68% 30.08 in 10.0 mi North 17.3 mph 25.3 mph N/A   Overcast
2:53 PM 46.9 °F - 37.0 °F 68% 30.09 in 10.0 mi North 16.1 mph 21.9 mph N/A   Overcast
3:53 PM 46.0 °F 39.0 °F 36.0 °F 68% 30.11 in 10.0 mi NNW 17.3 mph 25.3 mph N/A   Overcast
4:09 PM 46.0 °F 39.9 °F 36.0 °F 68% 30.10 in 10.0 mi North 13.8 mph - N/A   Overcast
4:53 PM 45.0 °F 38.5 °F 36.0 °F 71% 30.13 in 10.0 mi North 13.8 mph 23.0 mph N/A   Overcast
5:53 PM 45.0 °F 37.6 °F 35.1 °F 68% 30.14 in 10.0 mi North 17.3 mph 24.2 mph N/A   Overcast
6:53 PM 45.0 °F 37.6 °F 35.1 °F 68% 30.16 in 10.0 mi North 17.3 mph 25.3 mph 0.00 in   Overcast
7:53 PM 45.0 °F 38.5 °F 35.1 °F 68% 30.18 in 10.0 mi North 13.8 mph - N/A   Overcast
8:53 PM 44.1 °F 38.6 °F 34.0 °F 68% 30.20 in 10.0 mi North 10.4 mph - N/A   Overcast
9:53 PM 44.1 °F 38.1 °F 34.0 °F 68% 30.22 in 10.0 mi NNE 11.5 mph - N/A   Overcast
10:53 PM 44.1 °F 38.1 °F 34.0 °F 68% 30.23 in 10.0 mi NNE 11.5 mph - N/A   Overcast
11:53 PM 44.1 °F 37.7 °F 34.0 °F 68% 30.23 in 10.0 mi North 12.7 mph - N/A   Overcast